locationName,lineName,date,time,countIn,countOut
�����w�O,�w����,2022/8/1,0:00,0,0
�����w�O,�w����,2022/8/1,1:00,0,0
�����w�O,�w����,2022/8/1,2:00,0,0
�����w�O,�w����,2022/8/1,3:00,0,0
�����w�O,�w����,2022/8/1,4:00,0,0
�����w�O,�w����,2022/8/1,5:00,0,0
�����w�O,�w����,2022/8/1,6:00,0,0
�����w�O,�w����,2022/8/1,7:00,0,0
�����w�O,�w����,2022/8/1,8:00,0,0
�����w�O,�w����,2022/8/1,9:00,0,0
�����w�O,�w����,2022/8/1,10:00,0,0
�����w�O,�w����,2022/8/1,11:00,0,0
�����w�O,�w����,2022/8/1,12:00,0,0
�����w�O,�w����,2022/8/1,13:00,0,0
�����w�O,�w����,2022/8/1,14:00,0,0
�����w�O,�w����,2022/8/1,15:00,0,0
�����w�O,�w����,2022/8/1,16:00,0,0
�����w�O,�w����,2022/8/1,17:00,0,0
�����w�O,�w����,2022/8/1,18:00,0,0
�����w�O,�w����,2022/8/1,19:00,0,0
�����w�O,�w����,2022/8/1,20:00,0,0
�����w�O,�w����,2022/8/1,21:00,0,0
�����w�O,�w����,2022/8/1,22:00,0,0
�����w�O,�w����,2022/8/1,23:00,0,0
�����w�O,�w����,2022/8/2,0:00,0,0
�����w�O,�w����,2022/8/2,1:00,0,0
�����w�O,�w����,2022/8/2,2:00,0,0
�����w�O,�w����,2022/8/2,3:00,0,0
�����w�O,�w����,2022/8/2,4:00,0,0
�����w�O,�w����,2022/8/2,5:00,0,0
�����w�O,�w����,2022/8/2,6:00,0,0
�����w�O,�w����,2022/8/2,7:00,0,0
�����w�O,�w����,2022/8/2,8:00,0,0
�����w�O,�w����,2022/8/2,9:00,84,117
�����w�O,�w����,2022/8/2,10:00,110,149
�����w�O,�w����,2022/8/2,11:00,122,124
�����w�O,�w����,2022/8/2,12:00,172,145
�����w�O,�w����,2022/8/2,13:00,119,139
�����w�O,�w����,2022/8/2,14:00,129,147
�����w�O,�w����,2022/8/2,15:00,164,135
�����w�O,�w����,2022/8/2,16:00,187,125
�����w�O,�w����,2022/8/2,17:00,148,91
�����w�O,�w����,2022/8/2,18:00,0,0
�����w�O,�w����,2022/8/2,19:00,0,0
�����w�O,�w����,2022/8/2,20:00,0,0
�����w�O,�w����,2022/8/2,21:00,0,0
�����w�O,�w����,2022/8/2,22:00,0,0
�����w�O,�w����,2022/8/2,23:00,0,0
�����w�O,�w����,2022/8/3,0:00,0,0
�����w�O,�w����,2022/8/3,1:00,0,0
�����w�O,�w����,2022/8/3,2:00,0,0
�����w�O,�w����,2022/8/3,3:00,0,0
�����w�O,�w����,2022/8/3,4:00,0,0
�����w�O,�w����,2022/8/3,5:00,0,0
�����w�O,�w����,2022/8/3,6:00,0,0
�����w�O,�w����,2022/8/3,7:00,0,0
�����w�O,�w����,2022/8/3,8:00,0,0
�����w�O,�w����,2022/8/3,9:00,0,0
�����w�O,�w����,2022/8/3,10:00,0,0
�����w�O,�w����,2022/8/3,11:00,0,0
�����w�O,�w����,2022/8/3,12:00,0,0
�����w�O,�w����,2022/8/3,13:00,0,0
�����w�O,�w����,2022/8/3,14:00,0,0
�����w�O,�w����,2022/8/3,15:00,0,0
�����w�O,�w����,2022/8/3,16:00,0,0
�����w�O,�w����,2022/8/3,17:00,170,73
�����w�O,�w����,2022/8/3,18:00,183,123
�����w�O,�w����,2022/8/3,19:00,95,104
�����w�O,�w����,2022/8/3,20:00,57,69
�����w�O,�w����,2022/8/3,21:00,35,46
�����w�O,�w����,2022/8/3,22:00,25,17
�����w�O,�w����,2022/8/3,23:00,9,8
�����w�O,�w����,2022/8/4,0:00,7,8
�����w�O,�w����,2022/8/4,1:00,3,6
�����w�O,�w����,2022/8/4,2:00,4,8
�����w�O,�w����,2022/8/4,3:00,0,2
�����w�O,�w����,2022/8/4,4:00,4,0
�����w�O,�w����,2022/8/4,5:00,10,6
�����w�O,�w����,2022/8/4,6:00,53,48
�����w�O,�w����,2022/8/4,7:00,152,128
�����w�O,�w����,2022/8/4,8:00,99,195
�����w�O,�w����,2022/8/4,9:00,126,155
�����w�O,�w����,2022/8/4,10:00,131,142
�����w�O,�w����,2022/8/4,11:00,137,144
�����w�O,�w����,2022/8/4,12:00,158,177
�����w�O,�w����,2022/8/4,13:00,156,118
�����w�O,�w����,2022/8/4,14:00,163,165
�����w�O,�w����,2022/8/4,15:00,196,142
�����w�O,�w����,2022/8/4,16:00,175,148
�����w�O,�w����,2022/8/4,17:00,237,130
�����w�O,�w����,2022/8/4,18:00,190,148
�����w�O,�w����,2022/8/4,19:00,97,119
�����w�O,�w����,2022/8/4,20:00,63,62
�����w�O,�w����,2022/8/4,21:00,34,43
�����w�O,�w����,2022/8/4,22:00,26,22
�����w�O,�w����,2022/8/4,23:00,13,14
�����w�O,�w����,2022/8/5,0:00,4,2
�����w�O,�w����,2022/8/5,1:00,0,0
�����w�O,�w����,2022/8/5,2:00,0,0
�����w�O,�w����,2022/8/5,3:00,2,2
�����w�O,�w����,2022/8/5,4:00,4,0
�����w�O,�w����,2022/8/5,5:00,19,10
�����w�O,�w����,2022/8/5,6:00,71,42
�����w�O,�w����,2022/8/5,7:00,151,142
�����w�O,�w����,2022/8/5,8:00,117,207
�����w�O,�w����,2022/8/5,9:00,136,172
�����w�O,�w����,2022/8/5,10:00,140,170
�����w�O,�w����,2022/8/5,11:00,133,176
�����w�O,�w����,2022/8/5,12:00,204,183
�����w�O,�w����,2022/8/5,13:00,249,197
�����w�O,�w����,2022/8/5,14:00,239,208
�����w�O,�w����,2022/8/5,15:00,207,151
�����w�O,�w����,2022/8/5,16:00,215,140
�����w�O,�w����,2022/8/5,17:00,267,171
�����w�O,�w����,2022/8/5,18:00,173,135
�����w�O,�w����,2022/8/5,19:00,127,122
�����w�O,�w����,2022/8/5,20:00,81,88
�����w�O,�w����,2022/8/5,21:00,75,58
�����w�O,�w����,2022/8/5,22:00,24,59
�����w�O,�w����,2022/8/5,23:00,9,15
�����w�O,�w����,2022/8/6,0:00,4,3
�����w�O,�w����,2022/8/6,1:00,2,0
�����w�O,�w����,2022/8/6,2:00,0,0
�����w�O,�w����,2022/8/6,3:00,0,1
�����w�O,�w����,2022/8/6,4:00,5,6
�����w�O,�w����,2022/8/6,5:00,12,9
�����w�O,�w����,2022/8/6,6:00,49,31
�����w�O,�w����,2022/8/6,7:00,69,61
�����w�O,�w����,2022/8/6,8:00,107,118
�����w�O,�w����,2022/8/6,9:00,148,162
�����w�O,�w����,2022/8/6,10:00,161,249
�����w�O,�w����,2022/8/6,11:00,159,211
�����w�O,�w����,2022/8/6,12:00,181,224
�����w�O,�w����,2022/8/6,13:00,226,235
�����w�O,�w����,2022/8/6,14:00,265,236
�����w�O,�w����,2022/8/6,15:00,227,200
�����w�O,�w����,2022/8/6,16:00,290,186
�����w�O,�w����,2022/8/6,17:00,190,171
�����w�O,�w����,2022/8/6,18:00,150,126
�����w�O,�w����,2022/8/6,19:00,147,146
�����w�O,�w����,2022/8/6,20:00,93,165
�����w�O,�w����,2022/8/6,21:00,68,97
�����w�O,�w����,2022/8/6,22:00,33,48
�����w�O,�w����,2022/8/6,23:00,24,10
�����w�O,�w����,2022/8/7,0:00,2,4
�����w�O,�w����,2022/8/7,1:00,1,0
�����w�O,�w����,2022/8/7,2:00,0,0
�����w�O,�w����,2022/8/7,3:00,1,1
�����w�O,�w����,2022/8/7,4:00,2,3
�����w�O,�w����,2022/8/7,5:00,16,7
�����w�O,�w����,2022/8/7,6:00,34,27
�����w�O,�w����,2022/8/7,7:00,72,51
�����w�O,�w����,2022/8/7,8:00,110,138
�����w�O,�w����,2022/8/7,9:00,141,190
�����w�O,�w����,2022/8/7,10:00,170,210
�����w�O,�w����,2022/8/7,11:00,152,229
�����w�O,�w����,2022/8/7,12:00,220,230
�����w�O,�w����,2022/8/7,13:00,281,314
�����w�O,�w����,2022/8/7,14:00,363,393
�����w�O,�w����,2022/8/7,15:00,244,209
�����w�O,�w����,2022/8/7,16:00,202,182
�����w�O,�w����,2022/8/7,17:00,197,178
�����w�O,�w����,2022/8/7,18:00,181,130
�����w�O,�w����,2022/8/7,19:00,89,129
�����w�O,�w����,2022/8/7,20:00,55,68
�����w�O,�w����,2022/8/7,21:00,24,39
�����w�O,�w����,2022/8/7,22:00,18,37
�����w�O,�w����,2022/8/7,23:00,14,15
�����w�O,�w����,2022/8/8,0:00,1,0
�����w�O,�w����,2022/8/8,1:00,0,0
�����w�O,�w����,2022/8/8,2:00,0,0
�����w�O,�w����,2022/8/8,3:00,0,0
�����w�O,�w����,2022/8/8,4:00,0,0
�����w�O,�w����,2022/8/8,5:00,6,6
�����w�O,�w����,2022/8/8,6:00,61,35
�����w�O,�w����,2022/8/8,7:00,113,133
�����w�O,�w����,2022/8/8,8:00,109,189
�����w�O,�w����,2022/8/8,9:00,106,131
�����w�O,�w����,2022/8/8,10:00,152,222
�����w�O,�w����,2022/8/8,11:00,134,213
�����w�O,�w����,2022/8/8,12:00,187,187
�����w�O,�w����,2022/8/8,13:00,229,173
�����w�O,�w����,2022/8/8,14:00,206,218
�����w�O,�w����,2022/8/8,15:00,202,162
�����w�O,�w����,2022/8/8,16:00,175,140
�����w�O,�w����,2022/8/8,17:00,253,133
�����w�O,�w����,2022/8/8,18:00,239,156
�����w�O,�w����,2022/8/8,19:00,125,121
�����w�O,�w����,2022/8/8,20:00,88,80
�����w�O,�w����,2022/8/8,21:00,52,67
�����w�O,�w����,2022/8/8,22:00,21,32
�����w�O,�w����,2022/8/8,23:00,4,3
�����w�O,�w����,2022/8/9,0:00,1,6
�����w�O,�w����,2022/8/9,1:00,0,0
�����w�O,�w����,2022/8/9,2:00,0,0
�����w�O,�w����,2022/8/9,3:00,1,0
�����w�O,�w����,2022/8/9,4:00,3,0
�����w�O,�w����,2022/8/9,5:00,10,4
�����w�O,�w����,2022/8/9,6:00,62,44
�����w�O,�w����,2022/8/9,7:00,134,125
�����w�O,�w����,2022/8/9,8:00,137,188
�����w�O,�w����,2022/8/9,9:00,140,160
�����w�O,�w����,2022/8/9,10:00,171,204
�����w�O,�w����,2022/8/9,11:00,133,190
�����w�O,�w����,2022/8/9,12:00,177,184
�����w�O,�w����,2022/8/9,13:00,170,159
�����w�O,�w����,2022/8/9,14:00,222,246
�����w�O,�w����,2022/8/9,15:00,187,168
�����w�O,�w����,2022/8/9,16:00,203,144
�����w�O,�w����,2022/8/9,17:00,237,120
�����w�O,�w����,2022/8/9,18:00,173,134
�����w�O,�w����,2022/8/9,19:00,95,127
�����w�O,�w����,2022/8/9,20:00,75,53
�����w�O,�w����,2022/8/9,21:00,59,63
�����w�O,�w����,2022/8/9,22:00,24,34
�����w�O,�w����,2022/8/9,23:00,14,23
�����w�O,�w����,2022/8/10,0:00,2,2
�����w�O,�w����,2022/8/10,1:00,0,0
�����w�O,�w����,2022/8/10,2:00,0,0
�����w�O,�w����,2022/8/10,3:00,1,0
�����w�O,�w����,2022/8/10,4:00,2,1
�����w�O,�w����,2022/8/10,5:00,7,3
�����w�O,�w����,2022/8/10,6:00,66,38
�����w�O,�w����,2022/8/10,7:00,126,115
�����w�O,�w����,2022/8/10,8:00,144,170
�����w�O,�w����,2022/8/10,9:00,150,160
�����w�O,�w����,2022/8/10,10:00,151,212
�����w�O,�w����,2022/8/10,11:00,162,204
�����w�O,�w����,2022/8/10,12:00,170,177
�����w�O,�w����,2022/8/10,13:00,196,200
�����w�O,�w����,2022/8/10,14:00,198,217
�����w�O,�w����,2022/8/10,15:00,215,164
�����w�O,�w����,2022/8/10,16:00,223,170
�����w�O,�w����,2022/8/10,17:00,235,166
�����w�O,�w����,2022/8/10,18:00,214,161
�����w�O,�w����,2022/8/10,19:00,124,144
�����w�O,�w����,2022/8/10,20:00,70,86
�����w�O,�w����,2022/8/10,21:00,43,50
�����w�O,�w����,2022/8/10,22:00,38,46
�����w�O,�w����,2022/8/10,23:00,15,15
�����w�O,�w����,2022/8/11,0:00,1,11
�����w�O,�w����,2022/8/11,1:00,0,0
�����w�O,�w����,2022/8/11,2:00,0,0
�����w�O,�w����,2022/8/11,3:00,0,0
�����w�O,�w����,2022/8/11,4:00,0,1
�����w�O,�w����,2022/8/11,5:00,6,3
�����w�O,�w����,2022/8/11,6:00,35,40
�����w�O,�w����,2022/8/11,7:00,78,99
�����w�O,�w����,2022/8/11,8:00,136,229
�����w�O,�w����,2022/8/11,9:00,143,188
�����w�O,�w����,2022/8/11,10:00,200,293
�����w�O,�w����,2022/8/11,11:00,202,274
�����w�O,�w����,2022/8/11,12:00,239,253
�����w�O,�w����,2022/8/11,13:00,261,254
�����w�O,�w����,2022/8/11,14:00,360,354
�����w�O,�w����,2022/8/11,15:00,288,237
�����w�O,�w����,2022/8/11,16:00,279,238
�����w�O,�w����,2022/8/11,17:00,239,193
�����w�O,�w����,2022/8/11,18:00,212,185
�����w�O,�w����,2022/8/11,19:00,159,145
�����w�O,�w����,2022/8/11,20:00,108,74
�����w�O,�w����,2022/8/11,21:00,52,58
�����w�O,�w����,2022/8/11,22:00,30,44
�����w�O,�w����,2022/8/11,23:00,15,10
�����w�O,�w����,2022/8/12,0:00,0,1
�����w�O,�w����,2022/8/12,1:00,0,0
�����w�O,�w����,2022/8/12,2:00,0,0
�����w�O,�w����,2022/8/12,3:00,0,0
�����w�O,�w����,2022/8/12,4:00,1,0
�����w�O,�w����,2022/8/12,5:00,9,4
�����w�O,�w����,2022/8/12,6:00,50,32
�����w�O,�w����,2022/8/12,7:00,97,88
�����w�O,�w����,2022/8/12,8:00,116,173
�����w�O,�w����,2022/8/12,9:00,150,239
�����w�O,�w����,2022/8/12,10:00,165,296
�����w�O,�w����,2022/8/12,11:00,192,299
�����w�O,�w����,2022/8/12,12:00,232,291
�����w�O,�w����,2022/8/12,13:00,237,268
�����w�O,�w����,2022/8/12,14:00,290,252
�����w�O,�w����,2022/8/12,15:00,303,243
�����w�O,�w����,2022/8/12,16:00,302,210
�����w�O,�w����,2022/8/12,17:00,292,171
�����w�O,�w����,2022/8/12,18:00,233,175
�����w�O,�w����,2022/8/12,19:00,176,173
�����w�O,�w����,2022/8/12,20:00,112,96
�����w�O,�w����,2022/8/12,21:00,78,88
�����w�O,�w����,2022/8/12,22:00,29,35
�����w�O,�w����,2022/8/12,23:00,22,18
�����w�O,�w����,2022/8/13,0:00,1,10
�����w�O,�w����,2022/8/13,1:00,0,0
�����w�O,�w����,2022/8/13,2:00,0,0
�����w�O,�w����,2022/8/13,3:00,0,1
�����w�O,�w����,2022/8/13,4:00,1,0
�����w�O,�w����,2022/8/13,5:00,10,9
�����w�O,�w����,2022/8/13,6:00,28,21
�����w�O,�w����,2022/8/13,7:00,72,97
�����w�O,�w����,2022/8/13,8:00,135,141
�����w�O,�w����,2022/8/13,9:00,150,199
�����w�O,�w����,2022/8/13,10:00,161,246
�����w�O,�w����,2022/8/13,11:00,160,238
�����w�O,�w����,2022/8/13,12:00,185,268
�����w�O,�w����,2022/8/13,13:00,243,261
�����w�O,�w����,2022/8/13,14:00,280,294
�����w�O,�w����,2022/8/13,15:00,283,225
�����w�O,�w����,2022/8/13,16:00,297,252
�����w�O,�w����,2022/8/13,17:00,260,248
�����w�O,�w����,2022/8/13,18:00,193,164
�����w�O,�w����,2022/8/13,19:00,162,142
�����w�O,�w����,2022/8/13,20:00,85,85
�����w�O,�w����,2022/8/13,21:00,61,57
�����w�O,�w����,2022/8/13,22:00,33,41
�����w�O,�w����,2022/8/13,23:00,16,28
�����w�O,�w����,2022/8/14,0:00,1,2
�����w�O,�w����,2022/8/14,1:00,0,0
�����w�O,�w����,2022/8/14,2:00,2,0
�����w�O,�w����,2022/8/14,3:00,0,0
�����w�O,�w����,2022/8/14,4:00,2,1
�����w�O,�w����,2022/8/14,5:00,6,5
�����w�O,�w����,2022/8/14,6:00,36,22
�����w�O,�w����,2022/8/14,7:00,79,68
�����w�O,�w����,2022/8/14,8:00,108,161
�����w�O,�w����,2022/8/14,9:00,154,208
�����w�O,�w����,2022/8/14,10:00,193,278
�����w�O,�w����,2022/8/14,11:00,173,307
�����w�O,�w����,2022/8/14,12:00,246,274
�����w�O,�w����,2022/8/14,13:00,219,243
�����w�O,�w����,2022/8/14,14:00,319,260
�����w�O,�w����,2022/8/14,15:00,303,246
�����w�O,�w����,2022/8/14,16:00,314,232
�����w�O,�w����,2022/8/14,17:00,256,241
�����w�O,�w����,2022/8/14,18:00,281,191
�����w�O,�w����,2022/8/14,19:00,197,183
�����w�O,�w����,2022/8/14,20:00,94,95
�����w�O,�w����,2022/8/14,21:00,39,118
�����w�O,�w����,2022/8/14,22:00,37,90
�����w�O,�w����,2022/8/14,23:00,16,16
�����w�O,�w����,2022/8/15,0:00,0,5
�����w�O,�w����,2022/8/15,1:00,0,0
�����w�O,�w����,2022/8/15,2:00,0,0
�����w�O,�w����,2022/8/15,3:00,0,0
�����w�O,�w����,2022/8/15,4:00,1,0
�����w�O,�w����,2022/8/15,5:00,9,4
�����w�O,�w����,2022/8/15,6:00,39,32
�����w�O,�w����,2022/8/15,7:00,80,88
�����w�O,�w����,2022/8/15,8:00,84,131
�����w�O,�w����,2022/8/15,9:00,129,160
�����w�O,�w����,2022/8/15,10:00,196,280
�����w�O,�w����,2022/8/15,11:00,180,262
�����w�O,�w����,2022/8/15,12:00,213,276
�����w�O,�w����,2022/8/15,13:00,235,235
�����w�O,�w����,2022/8/15,14:00,312,233
�����w�O,�w����,2022/8/15,15:00,280,210
�����w�O,�w����,2022/8/15,16:00,274,187
�����w�O,�w����,2022/8/15,17:00,298,207
�����w�O,�w����,2022/8/15,18:00,198,141
�����w�O,�w����,2022/8/15,19:00,159,151
�����w�O,�w����,2022/8/15,20:00,94,102
�����w�O,�w����,2022/8/15,21:00,69,93
�����w�O,�w����,2022/8/15,22:00,24,21
�����w�O,�w����,2022/8/15,23:00,6,10
�����w�O,�w����,2022/8/16,0:00,3,1
�����w�O,�w����,2022/8/16,1:00,0,0
�����w�O,�w����,2022/8/16,2:00,0,0
�����w�O,�w����,2022/8/16,3:00,0,0
�����w�O,�w����,2022/8/16,4:00,5,0
�����w�O,�w����,2022/8/16,5:00,15,12
�����w�O,�w����,2022/8/16,6:00,40,36
�����w�O,�w����,2022/8/16,7:00,107,97
�����w�O,�w����,2022/8/16,8:00,105,193
�����w�O,�w����,2022/8/16,9:00,142,207
�����w�O,�w����,2022/8/16,10:00,146,247
�����w�O,�w����,2022/8/16,11:00,190,244
�����w�O,�w����,2022/8/16,12:00,225,248
�����w�O,�w����,2022/8/16,13:00,219,195
�����w�O,�w����,2022/8/16,14:00,229,200
�����w�O,�w����,2022/8/16,15:00,235,170
�����w�O,�w����,2022/8/16,16:00,254,193
�����w�O,�w����,2022/8/16,17:00,243,170
�����w�O,�w����,2022/8/16,18:00,193,131
�����w�O,�w����,2022/8/16,19:00,154,152
�����w�O,�w����,2022/8/16,20:00,51,56
�����w�O,�w����,2022/8/16,21:00,46,51
�����w�O,�w����,2022/8/16,22:00,24,35
�����w�O,�w����,2022/8/16,23:00,5,15
�����w�O,�w����,2022/8/17,0:00,1,0
�����w�O,�w����,2022/8/17,1:00,0,0
�����w�O,�w����,2022/8/17,2:00,0,0
�����w�O,�w����,2022/8/17,3:00,0,0
�����w�O,�w����,2022/8/17,4:00,3,0
�����w�O,�w����,2022/8/17,5:00,13,15
�����w�O,�w����,2022/8/17,6:00,76,134
�����w�O,�w����,2022/8/17,7:00,144,113
�����w�O,�w����,2022/8/17,8:00,123,155
�����w�O,�w����,2022/8/17,9:00,141,123
�����w�O,�w����,2022/8/17,10:00,144,242
�����w�O,�w����,2022/8/17,11:00,181,239
�����w�O,�w����,2022/8/17,12:00,235,209
�����w�O,�w����,2022/8/17,13:00,154,179
�����w�O,�w����,2022/8/17,14:00,206,211
�����w�O,�w����,2022/8/17,15:00,147,117
�����w�O,�w����,2022/8/17,16:00,200,143
�����w�O,�w����,2022/8/17,17:00,280,155
�����w�O,�w����,2022/8/17,18:00,202,177
�����w�O,�w����,2022/8/17,19:00,120,138
�����w�O,�w����,2022/8/17,20:00,87,83
�����w�O,�w����,2022/8/17,21:00,47,74
�����w�O,�w����,2022/8/17,22:00,11,28
�����w�O,�w����,2022/8/17,23:00,15,18
�����w�O,�w����,2022/8/18,0:00,2,8
�����w�O,�w����,2022/8/18,1:00,0,0
�����w�O,�w����,2022/8/18,2:00,1,1
�����w�O,�w����,2022/8/18,3:00,1,0
�����w�O,�w����,2022/8/18,4:00,17,1
�����w�O,�w����,2022/8/18,5:00,9,5
�����w�O,�w����,2022/8/18,6:00,63,25
�����w�O,�w����,2022/8/18,7:00,134,129
�����w�O,�w����,2022/8/18,8:00,129,147
�����w�O,�w����,2022/8/18,9:00,122,164
�����w�O,�w����,2022/8/18,10:00,149,187
�����w�O,�w����,2022/8/18,11:00,135,204
�����w�O,�w����,2022/8/18,12:00,213,245
�����w�O,�w����,2022/8/18,13:00,250,226
�����w�O,�w����,2022/8/18,14:00,226,241
�����w�O,�w����,2022/8/18,15:00,216,166
�����w�O,�w����,2022/8/18,16:00,271,180
�����w�O,�w����,2022/8/18,17:00,304,195
�����w�O,�w����,2022/8/18,18:00,228,168
�����w�O,�w����,2022/8/18,19:00,164,159
�����w�O,�w����,2022/8/18,20:00,69,81
�����w�O,�w����,2022/8/18,21:00,53,54
�����w�O,�w����,2022/8/18,22:00,24,34
�����w�O,�w����,2022/8/18,23:00,14,22
�����w�O,�w����,2022/8/19,0:00,4,1
�����w�O,�w����,2022/8/19,1:00,1,1
�����w�O,�w����,2022/8/19,2:00,0,0
�����w�O,�w����,2022/8/19,3:00,0,0
�����w�O,�w����,2022/8/19,4:00,1,0
�����w�O,�w����,2022/8/19,5:00,11,8
�����w�O,�w����,2022/8/19,6:00,81,46
�����w�O,�w����,2022/8/19,7:00,149,139
�����w�O,�w����,2022/8/19,8:00,148,201
�����w�O,�w����,2022/8/19,9:00,126,187
�����w�O,�w����,2022/8/19,10:00,200,237
�����w�O,�w����,2022/8/19,11:00,185,242
�����w�O,�w����,2022/8/19,12:00,219,240
�����w�O,�w����,2022/8/19,13:00,250,185
�����w�O,�w����,2022/8/19,14:00,257,224
�����w�O,�w����,2022/8/19,15:00,253,183
�����w�O,�w����,2022/8/19,16:00,274,209
�����w�O,�w����,2022/8/19,17:00,318,166
�����w�O,�w����,2022/8/19,18:00,222,170
�����w�O,�w����,2022/8/19,19:00,182,193
�����w�O,�w����,2022/8/19,20:00,67,69
�����w�O,�w����,2022/8/19,21:00,60,69
�����w�O,�w����,2022/8/19,22:00,32,27
�����w�O,�w����,2022/8/19,23:00,3,6
�����w�O,�w����,2022/8/20,0:00,2,2
�����w�O,�w����,2022/8/20,1:00,1,1
�����w�O,�w����,2022/8/20,2:00,0,0
�����w�O,�w����,2022/8/20,3:00,0,1
�����w�O,�w����,2022/8/20,4:00,1,0
�����w�O,�w����,2022/8/20,5:00,14,10
�����w�O,�w����,2022/8/20,6:00,47,31
�����w�O,�w����,2022/8/20,7:00,94,117
�����w�O,�w����,2022/8/20,8:00,119,157
�����w�O,�w����,2022/8/20,9:00,122,192
�����w�O,�w����,2022/8/20,10:00,167,258
�����w�O,�w����,2022/8/20,11:00,167,244
�����w�O,�w����,2022/8/20,12:00,192,246
�����w�O,�w����,2022/8/20,13:00,192,191
�����w�O,�w����,2022/8/20,14:00,261,220
�����w�O,�w����,2022/8/20,15:00,276,210
�����w�O,�w����,2022/8/20,16:00,250,173
�����w�O,�w����,2022/8/20,17:00,261,188
�����w�O,�w����,2022/8/20,18:00,194,146
�����w�O,�w����,2022/8/20,19:00,129,115
�����w�O,�w����,2022/8/20,20:00,90,104
�����w�O,�w����,2022/8/20,21:00,41,65
�����w�O,�w����,2022/8/20,22:00,25,26
�����w�O,�w����,2022/8/20,23:00,6,23
�����w�O,�w����,2022/8/21,0:00,3,1
�����w�O,�w����,2022/8/21,1:00,2,3
�����w�O,�w����,2022/8/21,2:00,0,0
�����w�O,�w����,2022/8/21,3:00,0,1
�����w�O,�w����,2022/8/21,4:00,1,0
�����w�O,�w����,2022/8/21,5:00,12,3
�����w�O,�w����,2022/8/21,6:00,31,18
�����w�O,�w����,2022/8/21,7:00,100,61
�����w�O,�w����,2022/8/21,8:00,94,113
�����w�O,�w����,2022/8/21,9:00,136,185
�����w�O,�w����,2022/8/21,10:00,167,257
�����w�O,�w����,2022/8/21,11:00,179,264
�����w�O,�w����,2022/8/21,12:00,228,252
�����w�O,�w����,2022/8/21,13:00,256,188
�����w�O,�w����,2022/8/21,14:00,238,227
�����w�O,�w����,2022/8/21,15:00,267,188
�����w�O,�w����,2022/8/21,16:00,284,200
�����w�O,�w����,2022/8/21,17:00,268,191
�����w�O,�w����,2022/8/21,18:00,165,118
�����w�O,�w����,2022/8/21,19:00,120,142
�����w�O,�w����,2022/8/21,20:00,67,68
�����w�O,�w����,2022/8/21,21:00,37,51
�����w�O,�w����,2022/8/21,22:00,13,27
�����w�O,�w����,2022/8/21,23:00,16,12
�����w�O,�w����,2022/8/22,0:00,0,0
�����w�O,�w����,2022/8/22,1:00,0,0
�����w�O,�w����,2022/8/22,2:00,0,0
�����w�O,�w����,2022/8/22,3:00,0,1
�����w�O,�w����,2022/8/22,4:00,2,0
�����w�O,�w����,2022/8/22,5:00,11,7
�����w�O,�w����,2022/8/22,6:00,73,42
�����w�O,�w����,2022/8/22,7:00,139,139
�����w�O,�w����,2022/8/22,8:00,127,184
�����w�O,�w����,2022/8/22,9:00,127,192
�����w�O,�w����,2022/8/22,10:00,154,201
�����w�O,�w����,2022/8/22,11:00,131,233
�����w�O,�w����,2022/8/22,12:00,191,217
�����w�O,�w����,2022/8/22,13:00,195,208
�����w�O,�w����,2022/8/22,14:00,223,227
�����w�O,�w����,2022/8/22,15:00,209,197
�����w�O,�w����,2022/8/22,16:00,238,182
�����w�O,�w����,2022/8/22,17:00,255,161
�����w�O,�w����,2022/8/22,18:00,232,155
�����w�O,�w����,2022/8/22,19:00,104,119
�����w�O,�w����,2022/8/22,20:00,50,67
�����w�O,�w����,2022/8/22,21:00,47,67
�����w�O,�w����,2022/8/22,22:00,23,28
�����w�O,�w����,2022/8/22,23:00,4,9
�����w�O,�w����,2022/8/23,0:00,1,3
�����w�O,�w����,2022/8/23,1:00,0,0
�����w�O,�w����,2022/8/23,2:00,0,0
�����w�O,�w����,2022/8/23,3:00,0,0
�����w�O,�w����,2022/8/23,4:00,2,0
�����w�O,�w����,2022/8/23,5:00,3,4
�����w�O,�w����,2022/8/23,6:00,71,33
�����w�O,�w����,2022/8/23,7:00,165,138
�����w�O,�w����,2022/8/23,8:00,177,228
�����w�O,�w����,2022/8/23,9:00,135,149
�����w�O,�w����,2022/8/23,10:00,121,196
�����w�O,�w����,2022/8/23,11:00,152,221
�����w�O,�w����,2022/8/23,12:00,156,182
�����w�O,�w����,2022/8/23,13:00,202,147
�����w�O,�w����,2022/8/23,14:00,214,199
�����w�O,�w����,2022/8/23,15:00,197,140
�����w�O,�w����,2022/8/23,16:00,234,143
�����w�O,�w����,2022/8/23,17:00,270,164
�����w�O,�w����,2022/8/23,18:00,191,130
�����w�O,�w����,2022/8/23,19:00,99,119
�����w�O,�w����,2022/8/23,20:00,67,61
�����w�O,�w����,2022/8/23,21:00,34,55
�����w�O,�w����,2022/8/23,22:00,31,26
�����w�O,�w����,2022/8/23,23:00,4,8
�����w�O,�w����,2022/8/24,0:00,1,4
�����w�O,�w����,2022/8/24,1:00,0,0
�����w�O,�w����,2022/8/24,2:00,0,0
�����w�O,�w����,2022/8/24,3:00,4,5
�����w�O,�w����,2022/8/24,4:00,0,0
�����w�O,�w����,2022/8/24,5:00,14,10
�����w�O,�w����,2022/8/24,6:00,53,39
�����w�O,�w����,2022/8/24,7:00,159,146
�����w�O,�w����,2022/8/24,8:00,121,169
�����w�O,�w����,2022/8/24,9:00,110,130
�����w�O,�w����,2022/8/24,10:00,139,147
�����w�O,�w����,2022/8/24,11:00,139,214
�����w�O,�w����,2022/8/24,12:00,151,162
�����w�O,�w����,2022/8/24,13:00,137,136
�����w�O,�w����,2022/8/24,14:00,180,187
�����w�O,�w����,2022/8/24,15:00,183,128
�����w�O,�w����,2022/8/24,16:00,189,149
�����w�O,�w����,2022/8/24,17:00,269,143
�����w�O,�w����,2022/8/24,18:00,196,144
�����w�O,�w����,2022/8/24,19:00,84,118
�����w�O,�w����,2022/8/24,20:00,59,59
�����w�O,�w����,2022/8/24,21:00,29,43
�����w�O,�w����,2022/8/24,22:00,29,37
�����w�O,�w����,2022/8/24,23:00,3,10
�����w�O,�w����,2022/8/25,0:00,0,0
�����w�O,�w����,2022/8/25,1:00,0,0
�����w�O,�w����,2022/8/25,2:00,0,0
�����w�O,�w����,2022/8/25,3:00,0,0
�����w�O,�w����,2022/8/25,4:00,1,0
�����w�O,�w����,2022/8/25,5:00,6,3
�����w�O,�w����,2022/8/25,6:00,69,35
�����w�O,�w����,2022/8/25,7:00,161,140
�����w�O,�w����,2022/8/25,8:00,111,169
�����w�O,�w����,2022/8/25,9:00,146,165
�����w�O,�w����,2022/8/25,10:00,125,185
�����w�O,�w����,2022/8/25,11:00,135,185
�����w�O,�w����,2022/8/25,12:00,150,130
�����w�O,�w����,2022/8/25,13:00,141,145
�����w�O,�w����,2022/8/25,14:00,216,174
�����w�O,�w����,2022/8/25,15:00,185,153
�����w�O,�w����,2022/8/25,16:00,204,155
�����w�O,�w����,2022/8/25,17:00,246,139
�����w�O,�w����,2022/8/25,18:00,209,127
�����w�O,�w����,2022/8/25,19:00,95,126
�����w�O,�w����,2022/8/25,20:00,56,49
�����w�O,�w����,2022/8/25,21:00,43,50
�����w�O,�w����,2022/8/25,22:00,26,30
�����w�O,�w����,2022/8/25,23:00,8,5
�����w�O,�w����,2022/8/26,0:00,1,4
�����w�O,�w����,2022/8/26,1:00,0,0
�����w�O,�w����,2022/8/26,2:00,0,0
�����w�O,�w����,2022/8/26,3:00,0,0
�����w�O,�w����,2022/8/26,4:00,0,0
�����w�O,�w����,2022/8/26,5:00,4,3
�����w�O,�w����,2022/8/26,6:00,68,47
�����w�O,�w����,2022/8/26,7:00,219,162
�����w�O,�w����,2022/8/26,8:00,93,157
�����w�O,�w����,2022/8/26,9:00,110,161
�����w�O,�w����,2022/8/26,10:00,132,185
�����w�O,�w����,2022/8/26,11:00,119,161
�����w�O,�w����,2022/8/26,12:00,155,157
�����w�O,�w����,2022/8/26,13:00,143,124
�����w�O,�w����,2022/8/26,14:00,229,217
�����w�O,�w����,2022/8/26,15:00,190,122
�����w�O,�w����,2022/8/26,16:00,213,161
�����w�O,�w����,2022/8/26,17:00,260,155
�����w�O,�w����,2022/8/26,18:00,209,147
�����w�O,�w����,2022/8/26,19:00,128,147